COSMOS 2278 (23087 NORAD) Tracking and Keplerian Element Data

This shows tracking and keplerian element data for the satellite.

Feedback or suggestion? Click here.




ElementValue
Catalog23087
NameCOSMOS 2278
Epoch Orbit25013
Epoch Day198.57991609
Epoch Year2018
RAAN252.581
Inclination71.0529
Eccentricity0.0010616
Argument of Perigee319.1509
Mean Anonmoly40.8817
Mean Motion14.1377151
Decay Rate-3.16E-06
L11 23087U 94023A 18198.57991609 -.00000316 00000-0 -14181-3 0 9991
L22 23087 71.0529 252.5810 0010616 319.1509 40.8817 14.13771510250130

Live tracking and technical data element details for COSMOS 2278 (NORAD 23087). COSMOS 2278 can be tracked NOW for your location showing map with azimuth and elevation plus other details from your city location.

Track the satellite on the map from your city or location and see movement details for azimuth, elevation, latitude, longitude, range, height, and movement on the map or in text.







IsCatalogInMostPopularTable: catalog: 23087, numindb: 24
Update: records affected: 1



GetName: 23087 COSMOS 2278

Hit Count: updated at: Wed, 18 Jul 2018 20:17:18 GMT